Find Starlink 6072

NORAD ID: 56806 Int'l Des: 2023-078 Owner: SPXS Country: US Constellation: starlink operational
LEOCIRCULAR

当前视图

正在加载3D地球...

关于 Starlink 6072

正在加载描述...

即将过境

Passes for default location (London). Set your location on the main map for personalized predictions.

高度历史

Loading altitude history...

两行轨道根数

1 56806U 23078AR 26151.22731692 .00001350 00000-0 12096-3 0 9992
2 56806 70.0005 96.1956 0002605 256.9098 103.1770 14.98324456166005
Epoch: May 31, 2026 • Age: 17 hours

当前状态

高度 574.3 km
速度 7.57 km/s
星下点 -2.35°S, 51.51°E
发射日期 May 31, 2023
运行时间 3 years
类型 internet

技术详情

分类 Payload
质量 305.00 kg
干质量 290.00 kg
总质量 305.00 kg
长度 0.20 m
直径 2.80 m
跨度 9.00 m
形状 Box + pan
制造商 SPXS
平台类型 Starlink
阶段状态 In Orbit
所有者/国家 SPXS/US

Most Searched